Location: Northcutt
(34.7304°N, 84.4305°W)
Time: 08:52:49
(UTC+00:00)

S-56A Canister/Altair - Pass Details

Date: 12 October 2022
Orbit: 638 x 2494 km, 38.9° (Epoch: 08 December)

Event Time Altitude Azimuth Distance (km) Brightness Sun altitude
Rises 02:06:20 0° 219° (SW) 5,923 12.3 -37.0°
Reaches altitude 10° 02:10:12 10° 215° (SW) 5,036 11.8 -37.8°
Enters shadow 02:20:58 47° 179° (S) 3,075 10.2 -39.8°
Maximum altitude 02:24:27 53° 144° (SE) 2,863 - -40.5°
Drops below altitude 10° 02:37:28 10° 73° (ENE) 4,645 - -42.9°
Sets 02:40:50 0° 69° (ENE) 5,450 - -43.6°
